sat.trackr.live / text

‹ back to catalog

STARLINK-33572

NORAD 62767 · 2025-015K

PAYLOAD ACTIVE UNKNOWN

§ Identity

Operator
Country
US
Launch date
2025-01-21
Launch site
AFWTR
Launch vehicle
Mass (kg)
RCS (m²)

Purposes: comms

External: N2YO · Heavens-Above · Gunter

§ Orbital elements

Epoch: 2026-05-25T04:00:03.998880Z

Period
93.85 min
Inclination
53.1600°
Eccentricity
0.0001506
Mean motion
15.34408030 rev/d
Perigee alt
461.6 km
Apogee alt
463.7 km
Semi-major
6,840.8 km
B*
-6.2229e-4
RAAN
327.1152°
Arg perigee
84.9080°
Mean anomaly
206.3100°
Rev number
585

§ Raw data

STARLINK-335721 62767U 25015K   26145.16671295 -.00021348  00000+0 -62229-3 0  99992 62767  53.1600 327.1152 0001506  84.9080 206.3100 15.34408030  5855

JSON: /api/v1/satellites/62767 · /tle

For live sub-satellite position, see the globe view (requires WebGL).

§ Visibility from observer

Set your observer location to see the next 7 days of passes ≥ 10°. The values pass through the URL so the page stays shareable.

No JS? Fill the form by hand. The geolocation button needs JavaScript.